| time (UTC) | temp F | wind direction | speed MPH | gust MPH | rain 1hr in | rain 24hr in | rain mn in | humidity % | barometer mb |
| 20260506192124 | 65 | 253 | 4.0 | 5.0 | 0.00 | 0.20 | 0.20 | 83 | 1007.3 |
| 20260506191621 | 64 | 122 | 6.0 | 7.0 | 0.00 | 0.20 | 0.20 | 84 | 1007.4 |
| 20260506191117 | 64 | 256 | 2.0 | 5.0 | 0.00 | 0.20 | 0.20 | 84 | 1007.3 |
| 20260506190615 | 64 | 192 | 10.0 | 14.0 | 0.00 | 0.20 | 0.20 | 85 | 1007.6 |
| 20260506190111 | 63 | 148 | 4.0 | 5.0 | 0.00 | 0.20 | 0.20 | 85 | 1007.5 |
| 20260506185608 | 63 | 166 | 4.0 | 3.0 | 0.00 | 0.20 | 0.20 | 86 | 1007.5 |
| 20260506185104 | 63 | 145 | 2.0 | 2.0 | 0.00 | 0.20 | 0.20 | 87 | 1007.6 |
| 20260506184602 | 63 | 195 | 4.0 | 5.0 | 0.00 | 0.20 | 0.20 | 88 | 1007.9 |
| 20260506184059 | 62 | 167 | 2.0 | 3.0 | 0.00 | 0.20 | 0.20 | 88 | 1007.6 |
| 20260506183555 | 62 | 261 | 2.0 | 5.0 | 0.00 | 0.20 | 0.20 | 89 | 1007.7 |
| 20260506183052 | 62 | 176 | 5.0 | 7.0 | 0.00 | 0.20 | 0.20 | 90 | 1007.9 |
| 20260506182549 | 62 | 207 | 5.0 | 5.0 | 0.00 | 0.20 | 0.20 | 90 | 1008.0 |
| 20260506182046 | 62 | 209 | 1.0 | 2.0 | 0.00 | 0.20 | 0.20 | 89 | 1008.2 |
| 20260506181544 | 62 | 209 | 2.0 | 3.0 | 0.00 | 0.20 | 0.20 | 88 | 1007.9 |
| 20260506181041 | 63 | 130 | 3.0 | 3.0 | 0.00 | 0.20 | 0.20 | 87 | 1008.0 |
| 20260506180537 | 63 | 42 | 2.0 | 3.0 | 0.00 | 0.20 | 0.20 | 87 | 1008.1 |
| 20260506180034 | 63 | 120 | 5.0 | 5.0 | 0.00 | 0.20 | 0.20 | 86 | 1007.9 |
| 20260506175531 | 63 | 157 | 3.0 | 5.0 | 0.00 | 0.20 | 0.20 | 85 | 1007.8 |
| 20260506175027 | 63 | 132 | 6.0 | 7.0 | 0.00 | 0.20 | 0.20 | 85 | 1007.9 |
| 20260506174526 | 63 | 284 | 3.0 | 5.0 | 0.00 | 0.20 | 0.20 | 85 | 1007.7 |
| 20260506174021 | 63 | 201 | 3.0 | 5.0 | 0.00 | 0.20 | 0.20 | 86 | 1007.8 |
| 20260506173519 | 63 | 131 | 7.0 | 12.0 | 0.00 | 0.20 | 0.20 | 85 | 1007.9 |
| 20260506173016 | 63 | 126 | 7.0 | 9.0 | 0.00 | 0.20 | 0.20 | 85 | 1007.8 |
| 20260506172514 | 63 | 89 | 4.0 | 5.0 | 0.00 | 0.20 | 0.20 | 85 | 1008.0 |
| 20260506172009 | 63 | 148 | 4.0 | 7.0 | 0.00 | 0.20 | 0.20 | 87 | 1007.9 |
| 20260506171507 | 62 | 148 | 10.0 | 10.0 | 0.00 | 0.20 | 0.20 | 87 | 1008.0 |
| 20260506171005 | 62 | 136 | 9.0 | 12.0 | 0.00 | 0.20 | 0.20 | 87 | 1008.3 |
| 20260506170502 | 62 | 143 | 4.0 | 7.0 | 0.00 | 0.20 | 0.20 | 87 | 1008.3 |
| 20260506165959 | 62 | 206 | 6.0 | 7.0 | 0.00 | 0.20 | 0.20 | 88 | 1008.2 |
| 20260506165458 | 62 | 142 | 6.0 | 7.0 | 0.00 | 0.20 | 0.20 | 88 | 1008.2 |
| 20260506164948 | 62 | 165 | 3.0 | 5.0 | 0.00 | 0.20 | 0.20 | 89 | 1008.3 |
| 20260506164445 | 62 | 137 | 4.0 | 5.0 | 0.00 | 0.20 | 0.20 | 88 | 1008.2 |
| 20260506163943 | 62 | 179 | 3.0 | 3.0 | 0.00 | 0.20 | 0.20 | 89 | 1008.0 |
| 20260506163438 | 62 | 245 | 4.0 | 5.0 | 0.07 | 0.20 | 0.20 | 90 | 1008.1 |
| 20260506162932 | 62 | 130 | 1.0 | 2.0 | 0.07 | 0.20 | 0.20 | 90 | 1008.1 |
| 20260506162430 | 62 | 148 | 2.0 | 2.0 | 0.00 | 0.19 | 0.19 | 90 | 1008.0 |
| 20260506161922 | 62 | 247 | 2.0 | 2.0 | 0.05 | 0.19 | 0.19 | 92 | 1007.9 |
| 20260506161420 | 61 | 110 | 3.0 | 3.0 | 0.05 | 0.19 | 0.19 | 91 | 1008.1 |
| 20260506160917 | 61 | 209 | 4.0 | 7.0 | 0.00 | 0.18 | 0.18 | 91 | 1008.4 |
| 20260506160414 | 61 | 110 | 2.0 | 2.0 | 0.07 | 0.18 | 0.18 | 91 | 1009.0 |
| 20260506155911 | 61 | 187 | 4.0 | 7.0 | 0.12 | 0.18 | 0.18 | 91 | 1009.2 |
| 20260506155409 | 61 | 72 | 2.0 | 3.0 | 0.12 | 0.17 | 0.17 | 91 | 1009.3 |
| 20260506153531 | 61 | 104 | 3.0 | 3.0 | 0.12 | 0.14 | 0.14 | 90 | 1009.4 |
| 20260506153028 | 61 | 98 | 2.0 | 2.0 | 0.12 | 0.13 | 0.13 | 90 | 1009.3 |
| 20260506152525 | 62 | 59 | 2.0 | 2.0 | 0.12 | 0.12 | 0.12 | 90 | 1009.5 |
| 20260506152023 | 62 | 127 | 2.0 | 3.0 | 0.19 | 0.11 | 0.11 | 89 | 1009.5 |
| 20260506151520 | 62 | 75 | 1.0 | 2.0 | 0.19 | 0.10 | 0.10 | 89 | 1009.2 |
| 20260506151018 | 62 | 71 | 1.0 | 2.0 | 0.12 | 0.08 | 0.08 | 88 | 1009.4 |
| 20260506150514 | 62 | 127 | 2.0 | 2.0 | 0.07 | 0.07 | 0.07 | 88 | 1009.3 |
| 20260506150011 | 62 | 46 | 2.0 | 2.0 | 0.05 | 0.06 | 0.06 | 88 | 1009.5 |
| 20260506145508 | 62 | 97 | 2.0 | 3.0 | 0.05 | 0.06 | 0.06 | 87 | 1009.1 |
| 20260506145005 | 62 | 175 | 1.0 | 2.0 | 0.07 | 0.05 | 0.05 | 87 | 1009.5 |
| 20260506144502 | 62 | 23 | 2.0 | 3.0 | 0.07 | 0.05 | 0.05 | 87 | 1009.3 |
| 20260506143959 | 62 | 53 | 0.0 | 0.0 | 0.12 | 0.05 | 0.05 | 86 | 1009.3 |
| 20260506143456 | 62 | 123 | 2.0 | 2.0 | 0.12 | 0.04 | 0.04 | 85 | 1009.3 |
| 20260506142955 | 63 | 52 | 0.0 | 0.0 | 0.12 | 0.03 | 0.03 | 84 | 1009.4 |
| 20260506142452 | 63 | 230 | 1.0 | 2.0 | 0.12 | 0.02 | 0.02 | 83 | 1009.4 |
| 20260506141950 | 64 | 261 | 3.0 | 3.0 | 0.07 | 0.01 | 0.01 | 80 | 1009.3 |
| 20260506141448 | 64 | 133 | 4.0 | 5.0 | 0.00 | 0.00 | 0.00 | 78 | 1009.4 |
| 20260506140946 | 64 | 271 | 4.0 | 5.0 | 0.00 | 0.00 | 0.00 | 77 | 1009.4 |
| 20260506140443 | 65 | 188 | 5.0 | 7.0 | 0.00 | 0.00 | 0.00 | 77 | 1009.4 |
| 20260506135939 | 65 | 105 | 5.0 | 7.0 | 0.00 | 0.00 | 0.00 | 75 | 1009.4 |
| 20260506135437 | 66 | 159 | 4.0 | 5.0 | 0.00 | 0.00 | 0.00 | 74 | 1009.3 |
| 20260506134933 | 66 | 121 | 5.0 | 5.0 | 0.00 | 0.00 | 0.00 | 72 | 1009.1 |
| 20260506134429 | 67 | 125 | 3.0 | 5.0 | 0.00 | 0.00 | 0.00 | 73 | 1009.2 |
| 20260506133926 | 67 | 256 | 3.0 | 7.0 | 0.00 | 0.00 | 0.00 | 72 | 1008.9 |
| 20260506133423 | 66 | 143 | 2.0 | 2.0 | 0.00 | 0.00 | 0.00 | 72 | 1009.1 |
| 20260506132920 | 66 | 146 | 3.0 | 3.0 | 0.00 | 0.00 | 0.00 | 72 | 1009.2 |
| 20260506132417 | 66 | 253 | 5.0 | 7.0 | 0.00 | 0.00 | 0.00 | 72 | 1009.4 |
| 20260506131915 | 66 | 97 | 3.0 | 3.0 | 0.00 | 0.00 | 0.00 | 73 | 1009.1 |
| 20260506131411 | 66 | 150 | 1.0 | 2.0 | 0.00 | 0.00 | 0.00 | 73 | 1009.3 |
| 20260506130908 | 66 | 157 | 3.0 | 3.0 | 0.00 | 0.00 | 0.00 | 72 | 1009.3 |
| 20260506130404 | 66 | 241 | 5.0 | 5.0 | 0.00 | 0.00 | 0.00 | 71 | 1009.3 |
| 20260506125903 | 66 | 170 | 6.0 | 5.0 | 0.00 | 0.00 | 0.00 | 70 | 1009.3 |
| 20260506125401 | 67 | 221 | 4.0 | 5.0 | 0.00 | 0.00 | 0.00 | 69 | 1009.4 |
| 20260506124859 | 67 | 163 | 4.0 | 7.0 | 0.00 | 0.00 | 0.00 | 69 | 1009.7 |
| 20260506124355 | 67 | 203 | 2.0 | 3.0 | 0.00 | 0.00 | 0.00 | 69 | 1009.4 |
| 20260506123853 | 67 | 176 | 7.0 | 9.0 | 0.00 | 0.00 | 0.00 | 68 | 1009.2 |
| 20260506123351 | 67 | 95 | 3.0 | 5.0 | 0.00 | 0.00 | 0.00 | 68 | 1009.4 |
| 20260506122848 | 67 | 235 | 17.0 | 21.0 | 0.00 | 0.00 | 0.00 | 67 | 1009.4 |
| 20260506122345 | 67 | 142 | 8.0 | 14.0 | 0.00 | 0.00 | 0.00 | 69 | 1009.2 |
| 20260506121843 | 67 | 235 | 7.0 | 9.0 | 0.00 | 0.00 | 0.00 | 68 | 1009.2 |
| 20260506121340 | 67 | 137 | 5.0 | 7.0 | 0.00 | 0.00 | 0.00 | 68 | 1009.2 |
| 20260506120837 | 67 | 119 | 2.0 | 3.0 | 0.00 | 0.00 | 0.00 | 68 | 1008.8 |
| 20260506120335 | 67 | 112 | 5.0 | 7.0 | 0.00 | 0.00 | 0.00 | 68 | 1009.1 |
| 20260506115832 | 67 | 223 | 2.0 | 3.0 | 0.00 | 0.00 | 0.00 | 69 | 1008.8 |
| 20260506115330 | 66 | 173 | 6.0 | 10.0 | 0.00 | 0.00 | 0.00 | 68 | 1008.7 |
| 20260506114828 | 66 | 197 | 3.0 | 3.0 | 0.00 | 0.00 | 0.00 | 69 | 1008.8 |
| 20260506114325 | 66 | 188 | 5.0 | 5.0 | 0.00 | 0.00 | 0.00 | 69 | 1008.6 |
| 20260506113824 | 66 | 195 | 6.0 | 9.0 | 0.00 | 0.00 | 0.00 | 69 | 1008.8 |
| 20260506113321 | 66 | 139 | 11.0 | 14.0 | 0.00 | 0.00 | 0.00 | 69 | 1008.7 |
| 20260506112817 | 66 | 161 | 9.0 | 14.0 | 0.00 | 0.00 | 0.00 | 69 | 1008.8 |
| 20260506112315 | 66 | 176 | 6.0 | 9.0 | 0.00 | 0.00 | 0.00 | 69 | 1008.6 |
| 20260506111812 | 66 | 144 | 2.0 | 3.0 | 0.00 | 0.00 | 0.00 | 69 | 1008.6 |
| 20260506111310 | 66 | 160 | 7.0 | 7.0 | 0.00 | 0.00 | 0.00 | 68 | 1008.7 |
| 20260506110807 | 66 | 159 | 5.0 | 9.0 | 0.00 | 0.00 | 0.00 | 68 | 1008.7 |
| 20260506110304 | 66 | 119 | 7.0 | 10.0 | 0.00 | 0.00 | 0.00 | 69 | 1008.9 |
| 20260506105801 | 66 | 135 | 5.0 | 9.0 | 0.00 | 0.00 | 0.00 | 68 | 1008.6 |
| 20260506105257 | 66 | 122 | 4.0 | 5.0 | 0.00 | 0.00 | 0.00 | 68 | 1008.4 |
| 20260506104755 | 66 | 150 | 2.0 | 2.0 | 0.00 | 0.00 | 0.00 | 68 | 1008.5 |
| 20260506104253 | 66 | 160 | 10.0 | 15.0 | 0.00 | 0.00 | 0.00 | 68 | 1008.5 |
| 20260506103750 | 66 | 136 | 3.0 | 5.0 | 0.00 | 0.00 | 0.00 | 68 | 1008.6 |
| 20260506103247 | 66 | 106 | 4.0 | 5.0 | 0.00 | 0.00 | 0.00 | 67 | 1008.6 |
| 20260506102745 | 67 | 116 | 1.0 | 2.0 | 0.00 | 0.00 | 0.00 | 67 | 1008.4 |
| 20260506102242 | 67 | 144 | 5.0 | 7.0 | 0.00 | 0.00 | 0.00 | 67 | 1008.5 |
| 20260506101739 | 67 | 129 | 4.0 | 7.0 | 0.00 | 0.00 | 0.00 | 67 | 1008.5 |
| 20260506101236 | 67 | 148 | 7.0 | 9.0 | 0.00 | 0.00 | 0.00 | 66 | 1008.4 |
| 20260506100734 | 67 | 154 | 4.0 | 5.0 | 0.00 | 0.00 | 0.00 | 66 | 1008.3 |
| 20260506100231 | 67 | 199 | 6.0 | 7.0 | 0.00 | 0.00 | 0.00 | 66 | 1008.5 |
| 20260506095730 | 67 | 273 | 4.0 | 7.0 | 0.00 | 0.00 | 0.00 | 66 | 1008.4 |
| 20260506095226 | 67 | 110 | 2.0 | 2.0 | 0.00 | 0.00 | 0.00 | 66 | 1008.7 |
| 20260506094723 | 67 | 136 | 6.0 | 7.0 | 0.00 | 0.00 | 0.00 | 66 | 1008.5 |
| 20260506094221 | 67 | 130 | 1.0 | 2.0 | 0.00 | 0.00 | 0.00 | 66 | 1008.6 |
| 20260506093720 | 67 | 152 | 3.0 | 5.0 | 0.00 | 0.00 | 0.00 | 66 | 1008.5 |
| 20260506093216 | 67 | 155 | 3.0 | 3.0 | 0.00 | 0.00 | 0.00 | 66 | 1008.3 |
| 20260506092714 | 67 | 213 | 5.0 | 7.0 | 0.00 | 0.00 | 0.00 | 66 | 1008.3 |
| 20260506092212 | 67 | 142 | 3.0 | 3.0 | 0.00 | 0.00 | 0.00 | 66 | 1008.4 |
| 20260506091709 | 67 | 137 | 5.0 | 7.0 | 0.00 | 0.00 | 0.00 | 66 | 1008.4 |
| 20260506091206 | 67 | 55 | 5.0 | 9.0 | 0.00 | 0.00 | 0.00 | 66 | 1008.3 |
| 20260506090704 | 67 | 150 | 4.0 | 9.0 | 0.00 | 0.00 | 0.00 | 66 | 1008.5 |
| 20260506090200 | 67 | 115 | 6.0 | 5.0 | 0.00 | 0.00 | 0.00 | 66 | 1008.5 |
| 20260506085657 | 67 | 119 | 2.0 | 3.0 | 0.00 | 0.00 | 0.00 | 66 | 1008.5 |
| 20260506085153 | 67 | 194 | 6.0 | 7.0 | 0.00 | 0.00 | 0.00 | 67 | 1008.5 |
| 20260506084650 | 67 | 100 | 4.0 | 3.0 | 0.00 | 0.00 | 0.00 | 66 | 1008.8 |
| 20260506084147 | 67 | 199 | 5.0 | 7.0 | 0.00 | 0.00 | 0.00 | 66 | 1008.5 |
| 20260506083644 | 68 | 153 | 4.0 | 5.0 | 0.00 | 0.00 | 0.00 | 66 | 1008.5 |
| 20260506083141 | 67 | 134 | 2.0 | 3.0 | 0.00 | 0.00 | 0.00 | 66 | 1008.5 |
| 20260506082639 | 68 | 124 | 3.0 | 5.0 | 0.00 | 0.00 | 0.00 | 66 | 1008.6 |
| 20260506082134 | 68 | 158 | 4.0 | 5.0 | 0.00 | 0.00 | 0.00 | 66 | 1008.5 |
| 20260506081632 | 68 | 172 | 7.0 | 10.0 | 0.00 | 0.00 | 0.00 | 66 | 1008.4 |
| 20260506081130 | 68 | 137 | 7.0 | 10.0 | 0.00 | 0.00 | 0.00 | 66 | 1008.7 |
| 20260506080627 | 68 | 152 | 5.0 | 5.0 | 0.00 | 0.00 | 0.00 | 65 | 1008.6 |
| 20260506080124 | 68 | 77 | 6.0 | 9.0 | 0.00 | 0.00 | 0.00 | 65 | 1008.6 |
| 20260506073108 | 68 | 107 | 5.0 | 7.0 | 0.00 | 0.00 | 0.00 | 64 | 1008.7 |
| 20260506072604 | 68 | 112 | 4.0 | 5.0 | 0.00 | 0.00 | 0.00 | 63 | 1008.8 |
| 20260506072102 | 68 | 137 | 4.0 | 5.0 | 0.00 | 0.00 | 0.00 | 63 | 1008.9 |
| 20260506071600 | 68 | 173 | 7.0 | 9.0 | 0.00 | 0.00 | 0.00 | 63 | 1008.8 |
| 20260506071057 | 68 | 156 | 3.0 | 3.0 | 0.00 | 0.00 | 0.00 | 63 | 1008.8 |
| 20260506070554 | 68 | 135 | 4.0 | 5.0 | 0.00 | 0.00 | 0.00 | 63 | 1008.8 |
| 20260506062028 | 68 | 323 | 2.0 | 3.0 | 0.00 | 0.00 | 0.00 | 60 | 1009.3 |
| 20260506061529 | 68 | 159 | 4.0 | 3.0 | 0.00 | 0.00 | 0.00 | 60 | 1009.5 |
| 20260506061027 | 68 | 165 | 6.0 | 7.0 | 0.00 | 0.00 | 0.00 | 60 | 1009.4 |
| 20260506060525 | 68 | 153 | 2.0 | 2.0 | 0.00 | 0.00 | 0.00 | 60 | 1009.4 |
| 20260506050954 | 68 | 106 | 2.0 | 3.0 | 0.00 | 0.00 | 0.00 | 58 | 1009.9 |
| 20260506050452 | 68 | 104 | 2.0 | 2.0 | 0.00 | 0.00 | 0.00 | 58 | 1009.9 |
| 20260506044942 | 68 | 38 | 2.0 | 2.0 | 0.00 | 0.00 | 0.00 | 58 | 1009.9 |
| 20260506044440 | 68 | 89 | 2.0 | 2.0 | 0.00 | 0.00 | 0.00 | 58 | 1010.0 |
| 20260506043936 | 68 | 113 | 2.0 | 3.0 | 0.00 | 0.00 | 0.00 | 57 | 1009.9 |
| 20260506043434 | 68 | 114 | 1.0 | 2.0 | 0.00 | 0.00 | 0.00 | 57 | 1010.0 |
| 20260506042932 | 68 | 98 | 1.0 | 2.0 | 0.00 | 0.00 | 0.00 | 57 | 1010.0 |
| 20260506042431 | 68 | 97 | 3.0 | 3.0 | 0.00 | 0.00 | 0.00 | 57 | 1009.8 |
| 20260506041929 | 68 | 132 | 2.0 | 2.0 | 0.00 | 0.00 | 0.00 | 57 | 1010.1 |
| 20260506041426 | 68 | 132 | 2.0 | 2.0 | 0.00 | 0.00 | 0.00 | 57 | 1009.9 |
| 20260506040923 | 68 | 132 | 2.0 | 2.0 | 0.00 | 0.00 | 0.00 | 56 | 1009.9 |
| 20260506040421 | 68 | 134 | 3.0 | 3.0 | 0.00 | 0.00 | 0.00 | 56 | 1010.0 |
| 20260506035916 | 69 | 133 | 1.0 | 2.0 | 0.00 | 0.00 | 0.00 | 55 | 1010.0 |
| 20260506035415 | 69 | 133 | 2.0 | 2.0 | 0.00 | 0.00 | 0.00 | 55 | 1009.9 |
| 20260506034911 | 69 | 136 | 2.0 | 2.0 | 0.00 | 0.00 | 0.00 | 55 | 1009.8 |
| 20260506034408 | 69 | 105 | 2.0 | 2.0 | 0.00 | 0.00 | 0.00 | 54 | 1009.8 |
| 20260506033905 | 69 | 100 | 3.0 | 5.0 | 0.00 | 0.00 | 0.00 | 53 | 1009.9 |
| 20260506033402 | 69 | 71 | 2.0 | 3.0 | 0.00 | 0.00 | 0.00 | 53 | 1009.8 |
| 20260506032859 | 70 | 72 | 2.0 | 2.0 | 0.00 | 0.00 | 0.00 | 52 | 1009.8 |
| 20260506032355 | 70 | 116 | 2.0 | 2.0 | 0.00 | 0.00 | 0.00 | 51 | 1009.6 |
| 20260506031852 | 71 | 82 | 2.0 | 2.0 | 0.00 | 0.00 | 0.00 | 51 | 1009.6 |
| 20260506031350 | 70 | 94 | 5.0 | 7.0 | 0.00 | 0.00 | 0.00 | 50 | 1009.8 |
| 20260506030848 | 70 | 160 | 4.0 | 3.0 | 0.00 | 0.00 | 0.00 | 51 | 1009.6 |
| 20260506030346 | 70 | 178 | 2.0 | 2.0 | 0.00 | 0.00 | 0.00 | 51 | 1009.7 |
| 20260506025842 | 71 | 108 | 2.0 | 3.0 | 0.00 | 0.00 | 0.00 | 50 | 1009.7 |
| 20260506025338 | 71 | 116 | 1.0 | 2.0 | 0.00 | 0.00 | 0.00 | 49 | 1009.7 |
| 20260506024835 | 71 | 108 | 3.0 | 3.0 | 0.00 | 0.00 | 0.00 | 49 | 1009.5 |
| 20260506024332 | 71 | 145 | 1.0 | 3.0 | 0.00 | 0.00 | 0.00 | 48 | 1009.5 |
| 20260506023828 | 71 | 134 | 3.0 | 3.0 | 0.00 | 0.00 | 0.00 | 47 | 1009.7 |
| 20260506023325 | 71 | 143 | 2.0 | 2.0 | 0.00 | 0.00 | 0.00 | 48 | 1009.8 |
| 20260506022822 | 71 | 134 | 2.0 | 3.0 | 0.00 | 0.00 | 0.00 | 47 | 1009.8 |
| 20260506022320 | 72 | 173 | 2.0 | 2.0 | 0.00 | 0.00 | 0.00 | 46 | 1009.8 |
| 20260506021818 | 72 | 193 | 2.0 | 3.0 | 0.00 | 0.00 | 0.00 | 46 | 1009.6 |
| 20260506021314 | 72 | 137 | 2.0 | 3.0 | 0.00 | 0.00 | 0.00 | 46 | 1009.7 |
| 20260506020811 | 72 | 80 | 2.0 | 3.0 | 0.00 | 0.00 | 0.00 | 45 | 1009.8 |
| 20260506020309 | 73 | 107 | 2.0 | 3.0 | 0.00 | 0.00 | 0.00 | 44 | 1009.7 |
| 20260506015807 | 73 | 83 | 2.0 | 2.0 | 0.00 | 0.00 | 0.00 | 43 | 1009.7 |
| 20260506015306 | 73 | 120 | 2.0 | 2.0 | 0.00 | 0.00 | 0.00 | 43 | 1009.5 |
| 20260506014800 | 73 | 105 | 3.0 | 3.0 | 0.00 | 0.00 | 0.00 | 43 | 1009.6 |
| 20260506014257 | 73 | 149 | 4.0 | 5.0 | 0.00 | 0.00 | 0.00 | 42 | 1009.6 |
| 20260506013754 | 73 | 94 | 1.0 | 2.0 | 0.00 | 0.00 | 0.00 | 42 | 1009.5 |
| 20260506013251 | 74 | 132 | 3.0 | 3.0 | 0.00 | 0.00 | 0.00 | 42 | 1009.5 |
| 20260506012748 | 74 | 127 | 2.0 | 3.0 | 0.00 | 0.00 | 0.00 | 42 | 1009.4 |
| 20260506012245 | 74 | 153 | 4.0 | 3.0 | 0.00 | 0.00 | 0.00 | 41 | 1009.4 |
| 20260506011742 | 74 | 137 | 4.0 | 5.0 | 0.00 | 0.00 | 0.00 | 41 | 1009.4 |
| 20260506011238 | 74 | 149 | 3.0 | 3.0 | 0.00 | 0.00 | 0.00 | 41 | 1009.3 |
| 20260506010737 | 75 | 138 | 6.0 | 10.0 | 0.00 | 0.00 | 0.00 | 40 | 1009.0 |
| 20260506010233 | 75 | 129 | 4.0 | 5.0 | 0.00 | 0.00 | 0.00 | 40 | 1009.1 |
| 20260506005731 | 75 | 88 | 1.0 | 2.0 | 0.00 | 0.00 | 0.00 | 40 | 1009.0 |
| 20260506005228 | 75 | 96 | 4.0 | 7.0 | 0.00 | 0.00 | 0.00 | 40 | 1009.2 |
| 20260506004723 | 76 | 169 | 4.0 | 3.0 | 0.00 | 0.00 | 0.00 | 39 | 1008.8 |
| 20260506004221 | 76 | 95 | 3.0 | 3.0 | 0.00 | 0.00 | 0.00 | 39 | 1009.0 |
| 20260506003717 | 75 | 144 | 7.0 | 9.0 | 0.00 | 0.00 | 0.00 | 38 | 1008.9 |
| 20260506003213 | 75 | 120 | 3.0 | 3.0 | 0.00 | 0.00 | 0.00 | 38 | 1008.9 |
| 20260506002710 | 76 | 154 | 2.0 | 3.0 | 0.00 | 0.00 | 0.00 | 37 | 1008.9 |
| 20260506002206 | 76 | 143 | 2.0 | 2.0 | 0.00 | 0.00 | 0.00 | 36 | 1008.6 |
| 20260506001702 | 76 | 113 | 4.0 | 5.0 | 0.00 | 0.00 | 0.00 | 36 | 1008.6 |
| 20260506001159 | 77 | 150 | 4.0 | 3.0 | 0.00 | 0.00 | 0.00 | 36 | 1008.6 |
| 20260506000656 | 77 | 184 | 4.0 | 5.0 | 0.00 | 0.00 | 0.00 | 36 | 1008.5 |
| 20260506000154 | 77 | 152 | 3.0 | 5.0 | 0.00 | 0.00 | 0.00 | 36 | 1008.6 |
| 20260505235652 | 77 | 353 | 1.0 | 2.0 | 0.00 | 0.00 | 0.00 | 36 | 1008.6 |
| 20260505235149 | 77 | 213 | 2.0 | 3.0 | 0.00 | 0.00 | 0.00 | 36 | 1008.4 |
| 20260505234645 | 77 | 105 | 5.0 | 5.0 | 0.00 | 0.00 | 0.00 | 35 | 1008.7 |
| 20260505234142 | 78 | 245 | 3.0 | 5.0 | 0.00 | 0.00 | 0.00 | 35 | 1008.6 |
| 20260505233639 | 78 | 168 | 3.0 | 5.0 | 0.00 | 0.00 | 0.00 | 35 | 1008.3 |
| 20260505233137 | 78 | 173 | 2.0 | 2.0 | 0.00 | 0.00 | 0.00 | 35 | 1008.5 |
| 20260505232634 | 78 | 142 | 3.0 | 3.0 | 0.00 | 0.00 | 0.00 | 35 | 1008.6 |
| 20260505232131 | 78 | 166 | 5.0 | 5.0 | 0.00 | 0.00 | 0.00 | 34 | 1008.3 |
| 20260505231628 | 78 | 254 | 3.0 | 3.0 | 0.00 | 0.00 | 0.00 | 34 | 1008.4 |
| 20260505231127 | 78 | 134 | 6.0 | 7.0 | 0.00 | 0.00 | 0.00 | 35 | 1008.5 |
| 20260505230625 | 78 | 233 | 3.0 | 5.0 | 0.00 | 0.00 | 0.00 | 35 | 1008.2 |
| 20260505230120 | 78 | 139 | 6.0 | 7.0 | 0.00 | 0.00 | 0.00 | 34 | 1008.2 |
| 20260505225617 | 79 | 173 | 6.0 | 9.0 | 0.00 | 0.00 | 0.00 | 35 | 1008.1 |
| 20260505225113 | 79 | 173 | 5.0 | 7.0 | 0.00 | 0.00 | 0.00 | 34 | 1008.2 |
| 20260505224610 | 79 | 128 | 2.0 | 3.0 | 0.00 | 0.00 | 0.00 | 35 | 1008.2 |
| 20260505224108 | 79 | 89 | 2.0 | 2.0 | 0.00 | 0.00 | 0.00 | 34 | 1008.2 |
| 20260505223605 | 79 | 158 | 5.0 | 5.0 | 0.00 | 0.00 | 0.00 | 33 | 1008.4 |
| 20260505223101 | 80 | 134 | 5.0 | 7.0 | 0.00 | 0.00 | 0.00 | 33 | 1008.4 |
| 20260505222558 | 80 | 150 | 3.0 | 3.0 | 0.00 | 0.00 | 0.00 | 32 | 1008.2 |
| 20260505222054 | 80 | 192 | 4.0 | 3.0 | 0.00 | 0.00 | 0.00 | 32 | 1008.3 |
| 20260505221551 | 81 | 188 | 4.0 | 7.0 | 0.00 | 0.00 | 0.00 | 31 | 1008.3 |
| 20260505221047 | 81 | 158 | 4.0 | 5.0 | 0.00 | 0.00 | 0.00 | 31 | 1008.1 |
| 20260505220544 | 81 | 261 | 6.0 | 7.0 | 0.00 | 0.00 | 0.00 | 30 | 1008.2 |
| 20260505220042 | 80 | 159 | 6.0 | 9.0 | 0.00 | 0.00 | 0.00 | 32 | 1008.1 |
| 20260505215540 | 79 | 213 | 5.0 | 5.0 | 0.00 | 0.00 | 0.00 | 32 | 1007.9 |
| 20260505215037 | 80 | 106 | 3.0 | 3.0 | 0.00 | 0.00 | 0.00 | 33 | 1008.0 |
| 20260505214535 | 80 | 148 | 4.0 | 5.0 | 0.00 | 0.00 | 0.00 | 33 | 1007.9 |
| 20260505214032 | 80 | 258 | 5.0 | 7.0 | 0.00 | 0.00 | 0.00 | 32 | 1008.0 |
| 20260505213530 | 80 | 142 | 3.0 | 3.0 | 0.00 | 0.00 | 0.00 | 32 | 1008.1 |
| 20260505213026 | 80 | 136 | 4.0 | 5.0 | 0.00 | 0.00 | 0.00 | 31 | 1008.0 |
| 20260505212522 | 80 | 156 | 9.0 | 10.0 | 0.00 | 0.00 | 0.00 | 31 | 1007.8 |
| 20260505212020 | 80 | 130 | 7.0 | 9.0 | 0.00 | 0.00 | 0.00 | 30 | 1007.8 |
| 20260505211517 | 81 | 121 | 9.0 | 12.0 | 0.00 | 0.00 | 0.00 | 30 | 1008.0 |
| 20260505211013 | 81 | 163 | 4.0 | 5.0 | 0.00 | 0.00 | 0.00 | 33 | 1007.9 |
| 20260505210510 | 81 | 179 | 12.0 | 17.0 | 0.00 | 0.00 | 0.00 | 30 | 1007.7 |
| 20260505210007 | 82 | 193 | 7.0 | 10.0 | 0.00 | 0.00 | 0.00 | 30 | 1008.1 |
| 20260505205505 | 82 | 245 | 6.0 | 7.0 | 0.00 | 0.00 | 0.00 | 30 | 1008.2 |
| 20260505205002 | 82 | 146 | 9.0 | 10.0 | 0.00 | 0.00 | 0.00 | 29 | 1008.2 |
| 20260505204500 | 82 | 278 | 7.0 | 10.0 | 0.00 | 0.00 | 0.00 | 29 | 1007.8 |
| 20260505203957 | 82 | 189 | 7.0 | 9.0 | 0.00 | 0.00 | 0.00 | 31 | 1008.1 |
| 20260505203453 | 82 | 183 | 7.0 | 9.0 | 0.00 | 0.00 | 0.00 | 32 | 1008.0 |
| 20260505202950 | 82 | 163 | 10.0 | 12.0 | 0.00 | 0.00 | 0.00 | 30 | 1008.0 |
| 20260505202447 | 82 | 240 | 10.0 | 12.0 | 0.00 | 0.00 | 0.00 | 29 | 1008.1 |
| 20260505201942 | 82 | 148 | 8.0 | 9.0 | 0.00 | 0.00 | 0.00 | 30 | 1008.2 |
| 20260505201439 | 82 | 172 | 6.0 | 7.0 | 0.00 | 0.00 | 0.00 | 30 | 1008.3 |
| 20260505200937 | 82 | 148 | 8.0 | 10.0 | 0.00 | 0.00 | 0.00 | 28 | 1008.2 |
| 20260505200435 | 82 | 126 | 6.0 | 7.0 | 0.00 | 0.00 | 0.00 | 28 | 1008.2 |
| 20260505195930 | 82 | 197 | 10.0 | 15.0 | 0.00 | 0.00 | 0.00 | 29 | 1008.3 |
| 20260505195428 | 82 | 250 | 11.0 | 15.0 | 0.00 | 0.00 | 0.00 | 30 | 1008.5 |
| 20260505194925 | 82 | 193 | 7.0 | 9.0 | 0.00 | 0.00 | 0.00 | 30 | 1008.5 |
| 20260505194422 | 82 | 151 | 5.0 | 9.0 | 0.00 | 0.00 | 0.00 | 31 | 1008.5 |
| 20260505193922 | 82 | 162 | 7.0 | 10.0 | 0.00 | 0.00 | 0.00 | 27 | 1008.4 |
| 20260505193420 | 82 | 263 | 10.0 | 14.0 | 0.00 | 0.00 | 0.00 | 29 | 1008.4 |
| 20260505192918 | 82 | 219 | 10.0 | 12.0 | 0.00 | 0.00 | 0.00 | 28 | 1008.8 |